Regional Weather Roundup
Issued by NWS

Home | Current Version | Previous Version | Graphics & Text | Print | Product List | Glossary On
Versions: 1 2 3 4 5 6 7 8 9 10 11 12 13 14 15 16 17 18 19 20 21 22 23 24 25 26 27 28 29 30 31 32 33 34 35 36 37 38 39 40 41 42 43 44 45 46 47 48 49 50
000
ASUS43 KBIS 281810
RWRND

NORTH DAKOTA REGIONAL WEATHER ROUNDUP
NATIONAL WEATHER SERVICE BISMARCK ND
100 PM CDT SUN AUG 28 2016

NOTE: "FAIR" INDICATES FEW OR NO CLOUDS BELOW 12,000 FEET WITH NO
SIGNIFICANT WEATHER AND/OR OBSTRUCTIONS TO VISIBILITY.


NDZ001>003-009>011-017-281900-
NORTHWEST NORTH DAKOTA

CITY           SKY/WX    TMP DP  RH WIND       PRES   REMARKS
WILLISTON      MOSUNNY   82  53  36 S7        29.88S
6HR MIN TEMP:  60; 6HR MAX TEMP:  83;

MINOT          SUNNY     87  59  38 SE14      29.86F
MINOT AFB      SUNNY     87  60  39 SE17      29.85F
$$

NDZ018>021-031>035-040>046-281900-
SOUTHWEST NORTH DAKOTA

CITY           SKY/WX    TMP DP  RH WIND       PRES   REMARKS
BISMARCK       SUNNY     80  65  59 S7        29.91S
6HR MIN TEMP:  56; 6HR MAX TEMP:  80;

DICKINSON      SUNNY     90  34  13 SW7       29.91R
GARRISON         N/A     83  65  54 SE7       29.89F
6HR MIN TEMP:  54; 6HR MAX TEMP:  83;

HETTINGER ARPT SUNNY     90  49  24 SE3       29.95R
$$

NDZ004>008-012>016-024-026-027-054-281900-
NORTHEAST NORTH DAKOTA

CITY           SKY/WX    TMP DP  RH WIND       PRES   REMARKS
GRAND FORKS    PTSUNNY   77  63  61 SE18G25   29.97F
GRND FRKS AFB  SUNNY     77  64  65 S20G25    29.98S
DEVILS LAKE    SUNNY     78  67  68 SE17G24   29.94F
$$

NDZ022-023-025-028>030-036>039-047>053-281900-
SOUTHEAST NORTH DAKOTA

CITY           SKY/WX    TMP DP  RH WIND       PRES   REMARKS
FARGO          SUNNY     80  64  58 S18G28    29.98F
6HR MIN TEMP:  63; 6HR MAX TEMP:  80;

JAMESTOWN      MOSUNNY   80  70  71 S16G24    29.93S
$$





USA.gov is the U.S. government's official web portal to all federal, state and local government web resources and services.